Weather History for Idabel, OK

Change the Weather History Date:

Tuesday, August 20, 2013

  Actual Average (KDEQ) Record (KDEQ)
Temperature  
Mean Temperature 80 °F 81 °F  
Max Temperature 93 °F 94 °F 108 °F (2011)
Min Temperature 66 °F 68 °F 54 °F (1940)
Degree Days  
Heating Degree Days 0 0  
Month to date heating degree days 0  
Since 1 June heating degree days 0  
Since 1 July heating degree days 0  
Cooling Degree Days 14 16  
Month to date cooling degree days 333  
Year to date cooling degree days 1425  
Since 1 June cooling degree days 1208  
Growing Degree Days 30 (Base 50)    
Moisture  
Dew Point 62 °F    
Average Humidity 60    
Maximum Humidity 88    
Minimum Humidity 28    
Precipitation  
Precipitation 0.00 in 0.07 in 4.35 in (1970)
Month to date precipitation 1.36  
Year to date precipitation 30.78  
Snow  
Snow 0.00 in - - ()
Month to date snowfall  
Since 1 June snowfall  
Since 1 July snowfall  
Snow Depth -    
Sea Level Pressure  
Sea Level Pressure 30.04 in    
Wind  
Wind Speed 6 mph (East)    
Max Wind Speed 9 mph    
Max Gust Speed -    
Visibility 10 miles    
Events      
T = Trace of Precipitation, MM = Missing Value Source: NWS Daily Summary

Daily Weather History Graph

Daily Weather History Graph

Search for Another Location

Airport:

Trip Planner

Search our weather history database for the weather conditions in past years. The results will help you decide how hot, cold, wet, or windy it might be!

Date:

Astronomy

Aug. 20, 2013 Rise Set
Actual Time 6:44 AM CDT 7:59 PM CDT
Civil Twilight 6:18 AM CDT 8:26 PM CDT
Nautical Twilight 5:47 AM CDT 8:57 PM CDT
Astronomical Twilight 5:15 AM CDT 9:29 PM CDT
Moon 7:35 PM CDT (8/20) 6:14 AM CDT (8/20)
Length of Visible Light 14h 07m
Length of Day
13h 15m
Full, 100% of the Moon is Illuminated
Aug 20
Full
Aug 20
Full
Aug 28
Last Quarter
Sep 5
New
Sep 12
First Quarter

Hourly Weather History & Observations

Time (CDT) Temp. Heat Index Dew Point Humidity Pressure Visibility Wind Dir Wind Speed Gust Speed Precip Events Conditions
12:15 AM 69.8 °F - 62.6 °F 78% 30.03 in 10.0 mi ENE 5.8 mph - N/A   Clear
12:55 AM 69.8 °F - 64.4 °F 83% 30.03 in 10.0 mi ENE 6.9 mph - N/A   Clear
1:15 AM 69.8 °F - 62.6 °F 78% 30.03 in 10.0 mi East 5.8 mph - N/A   Clear
1:35 AM 69.8 °F - 62.6 °F 78% 30.03 in 10.0 mi East 6.9 mph - N/A   Clear
1:55 AM 69.8 °F - 62.6 °F 78% 30.03 in 10.0 mi ENE 6.9 mph - N/A   Clear
2:15 AM 68.0 °F - 62.6 °F 83% 30.02 in 10.0 mi East 6.9 mph - N/A   Clear
2:35 AM 68.0 °F - 62.6 °F 83% 30.02 in 10.0 mi East 6.9 mph - N/A   Clear
2:55 AM 68.0 °F - 62.6 °F 83% 30.02 in 10.0 mi ENE 6.9 mph - N/A   Clear
3:15 AM 68.0 °F - 62.6 °F 83% 30.03 in 10.0 mi East 6.9 mph - N/A   Clear
3:35 AM 68.0 °F - 62.6 °F 83% 30.03 in 10.0 mi East 4.6 mph - N/A   Clear
3:55 AM 68.0 °F - 60.8 °F 78% 30.03 in 10.0 mi East 5.8 mph - N/A   Clear
4:15 AM 66.2 °F - 62.6 °F 88% 30.03 in 10.0 mi ENE 5.8 mph - N/A   Clear
4:35 AM 66.2 °F - 62.6 °F 88% 30.03 in 10.0 mi ENE 6.9 mph - N/A   Clear
4:55 AM 66.2 °F - 62.6 °F 88% 30.04 in 10.0 mi ENE 6.9 mph - N/A   Clear
5:15 AM 66.2 °F - 62.6 °F 88% 30.04 in 10.0 mi ENE 8.1 mph - N/A   Clear
5:35 AM 66.2 °F - 62.6 °F 88% 30.04 in 10.0 mi East 5.8 mph - N/A   Clear
5:55 AM 66.2 °F - 62.6 °F 88% 30.04 in 10.0 mi East 6.9 mph - N/A   Clear
6:15 AM 66.2 °F - 62.6 °F 88% 30.05 in 10.0 mi East 4.6 mph - N/A   Clear
6:35 AM 66.2 °F - 62.6 °F 88% 30.05 in 10.0 mi ENE 5.8 mph - N/A   Clear
6:55 AM 66.2 °F - 62.6 °F 88% 30.05 in 10.0 mi East 6.9 mph - N/A   Clear
7:15 AM 66.2 °F - 62.6 °F 88% 30.06 in 10.0 mi ENE 3.5 mph - N/A   Clear
7:35 AM 66.2 °F - 62.6 °F 88% 30.07 in 10.0 mi East 4.6 mph - N/A   Clear
7:55 AM 68.0 °F - 62.6 °F 83% 30.07 in 10.0 mi East 5.8 mph - N/A   Clear
8:15 AM 69.8 °F - 64.4 °F 83% 30.07 in 10.0 mi East 6.9 mph - N/A   Clear
8:35 AM 69.8 °F - 64.4 °F 83% 30.07 in 10.0 mi East 8.1 mph - N/A   Clear
8:55 AM 71.6 °F - 64.4 °F 78% 30.08 in 10.0 mi East 5.8 mph - N/A   Clear
9:15 AM 73.4 °F - 64.4 °F 73% 30.08 in 10.0 mi East 4.6 mph - N/A   Clear
9:35 AM 77.0 °F - 66.2 °F 69% 30.08 in 10.0 mi East 5.8 mph - N/A   Clear
9:55 AM 78.8 °F - 68.0 °F 69% 30.08 in 10.0 mi East 5.8 mph - N/A   Clear
10:15 AM 80.6 °F 82.7 °F 66.2 °F 61% 30.08 in 10.0 mi East 4.6 mph - N/A   Clear
10:35 AM 82.4 °F 83.9 °F 64.4 °F 54% 30.08 in 10.0 mi SE 4.6 mph - N/A   Clear
10:55 AM 84.2 °F 86.6 °F 66.2 °F 55% 30.08 in 10.0 mi ESE 5.8 mph - N/A   Clear
11:15 AM 86.0 °F 88.2 °F 66.2 °F 51% 30.08 in 10.0 mi SE 4.6 mph - N/A   Clear
11:35 AM 87.8 °F 89.4 °F 64.4 °F 46% 30.08 in 10.0 mi Calm Calm - N/A   Clear
11:55 AM 87.8 °F 89.4 °F 64.4 °F 46% 30.07 in 10.0 mi Calm Calm - N/A   Clear
12:15 PM 87.8 °F 88.5 °F 62.6 °F 43% 30.07 in 10.0 mi SE 3.5 mph - N/A   Clear
12:35 PM 89.6 °F 90.1 °F 62.6 °F 40% 30.07 in 10.0 mi Calm Calm - N/A   Clear
12:55 PM 89.6 °F 90.1 °F 62.6 °F 40% 30.07 in 10.0 mi SE 6.9 mph - N/A   Clear
1:15 PM 91.4 °F 90.7 °F 59.0 °F 34% 30.06 in 10.0 mi Calm Calm - N/A   Clear
1:35 PM 93.2 °F 92.6 °F 59.0 °F 32% 30.05 in 10.0 mi SE 5.8 mph - N/A   Clear
1:55 PM 93.2 °F 91.3 °F 55.4 °F 28% 30.04 in 10.0 mi SE 3.5 mph - N/A   Clear
2:15 PM 91.4 °F 90.7 °F 59.0 °F 34% 30.04 in 10.0 mi Calm Calm - N/A   Clear
2:35 PM 93.2 °F 92.6 °F 59.0 °F 32% 30.04 in 10.0 mi SE 8.1 mph - N/A   Clear
2:55 PM 91.4 °F 90.7 °F 59.0 °F 34% 30.03 in 10.0 mi East 9.2 mph - N/A   Clear
3:15 PM 93.2 °F 92.6 °F 59.0 °F 32% 30.03 in 10.0 mi East 5.8 mph - N/A   Clear
3:35 PM 93.2 °F 92.6 °F 59.0 °F 32% 30.02 in 10.0 mi SE 6.9 mph - N/A   Clear
3:55 PM 93.2 °F 92.6 °F 59.0 °F 32% 30.02 in 10.0 mi East 6.9 mph - N/A   Clear
4:15 PM 93.2 °F 92.6 °F 59.0 °F 32% 30.01 in 10.0 mi ESE 6.9 mph - N/A   Clear
4:35 PM 93.2 °F 92.6 °F 59.0 °F 32% 30.01 in 10.0 mi East 6.9 mph - N/A   Clear
4:55 PM 91.4 °F 90.7 °F 59.0 °F 34% 30.01 in 10.0 mi ESE 4.6 mph - N/A   Clear
5:15 PM 93.2 °F 92.6 °F 59.0 °F 32% 30.01 in 10.0 mi East 9.2 mph - N/A   Clear
5:35 PM 93.2 °F 92.6 °F 59.0 °F 32% 30.00 in 10.0 mi East 6.9 mph - N/A   Clear
5:55 PM 91.4 °F 90.7 °F 59.0 °F 34% 30.00 in 10.0 mi East 6.9 mph - N/A   Clear
6:15 PM 91.4 °F 90.7 °F 59.0 °F 34% 29.99 in 10.0 mi East 5.8 mph - N/A   Clear
6:35 PM 91.4 °F 90.7 °F 59.0 °F 34% 29.99 in 10.0 mi East 5.8 mph - N/A   Clear
6:55 PM 89.6 °F 89.5 °F 60.8 °F 38% 29.99 in 10.0 mi East 6.9 mph - N/A   Clear
7:15 PM 87.8 °F 87.6 °F 60.8 °F 40% 29.99 in 10.0 mi East 5.8 mph - N/A   Clear
7:35 PM 86.0 °F 86.6 °F 62.6 °F 45% 30.00 in 10.0 mi East 4.6 mph - N/A   Clear
7:55 PM 82.4 °F 83.4 °F 62.6 °F 51% 30.00 in 10.0 mi East 4.6 mph - N/A   Clear
8:15 PM 80.6 °F 81.8 °F 62.6 °F 54% 30.00 in 10.0 mi East 5.8 mph - N/A   Clear
8:35 PM 78.8 °F - 62.6 °F 57% 30.00 in 10.0 mi East 5.8 mph - N/A   Clear
8:55 PM 78.8 °F - 62.6 °F 57% 30.00 in 10.0 mi East 5.8 mph - N/A   Clear
9:15 PM 77.0 °F - 62.6 °F 61% 30.01 in 10.0 mi East 5.8 mph - N/A   Clear
9:35 PM 77.0 °F - 62.6 °F 61% 30.02 in 10.0 mi East 6.9 mph - N/A   Clear
9:55 PM 77.0 °F - 62.6 °F 61% 30.02 in 10.0 mi ESE 6.9 mph - N/A   Clear
10:15 PM 77.0 °F - 62.6 °F 61% 30.03 in 10.0 mi East 6.9 mph - N/A   Clear
10:35 PM 77.0 °F - 62.6 °F 61% 30.03 in 10.0 mi East 8.1 mph - N/A   Clear
10:55 PM 77.0 °F - 62.6 °F 61% 30.03 in 10.0 mi East 5.8 mph - N/A   Clear
11:15 PM 77.0 °F - 62.6 °F 61% 30.04 in 10.0 mi East 5.8 mph - N/A   Clear
11:35 PM 73.4 °F - 62.6 °F 69% 30.04 in 10.0 mi East 5.8 mph - N/A   Clear
11:55 PM 73.4 °F - 62.6 °F 69% 30.04 in 10.0 mi East 4.6 mph - N/A   Clear